EW4330 Weather Reports


time (UTC)temp
C
wind
direction
speed
KPH
gust
KPH
rain 1hr
cm
rain 24hr
cm
rain mn
cm
humidity
%
barometer
mb
20260504001528 11 270 3.2 4.8 0.00 0.00 0.00 79 1019.0
20260504001027 11 295 3.2 4.8 0.00 0.00 0.00 79 1019.0
20260504000526 11 284 1.6 3.2 0.00 0.00 0.00 79 1019.0
20260504000026 11 260 0.0 4.8 0.00 0.00 0.00 79 1019.0
20260503235527 11 270 3.2 4.8 0.00 0.00 0.00 79 1020.0
20260503235026 11 270 3.2 4.8 0.00 0.00 0.00 79 1020.0
20260503234526 11 270 3.2 3.2 0.00 0.00 0.00 78 1020.0
20260503234026 11 296 1.6 3.2 0.00 0.00 0.00 78 1019.0
20260503233528 12 270 1.6 3.2 0.00 0.00 0.00 78 1019.0
20260503233026 12 321 1.6 3.2 0.00 0.00 0.00 76 1019.0
20260503232526 12 315 1.6 3.2 0.00 0.00 0.00 76 1018.0
20260503232026 12 270 1.6 3.2 0.00 0.00 0.00 76 1018.0
20260503231528 12 300 3.2 3.2 0.00 0.00 0.00 75 1018.0
20260503231026 12 323 3.2 4.8 0.00 0.00 0.00 75 1019.0
20260503230526 12 284 3.2 4.8 0.00 0.00 0.00 74 1019.0
20260503230025 12 0 3.2 3.2 0.00 0.00 0.00 74 1019.0
20260503225527 12 270 1.6 3.2 0.00 0.00 0.00 73 1019.0
20260503225027 12 310 1.6 3.2 0.00 0.00 0.00 72 1019.0
20260503224526 12 0 3.2 3.2 0.00 0.00 0.00 71 1019.0
20260503224025 12 0 1.6 3.2 0.00 0.00 0.00 70 1019.0
20260503223527 12 0 3.2 3.2 0.00 0.00 0.00 69 1019.0
20260503223026 12 0 1.6 3.2 0.00 0.00 0.00 68 1019.0
20260503222525 12 270 3.2 3.2 0.00 0.00 0.00 68 1019.0
20260503222026 12 279 1.6 3.2 0.00 0.00 0.00 67 1019.0
20260503221027 12 270 3.2 4.8 0.00 0.00 0.00 67 1019.0
20260503220527 12 249 3.2 4.8 0.00 0.00 0.00 67 1019.0
20260503220026 12 180 3.2 4.8 0.00 0.00 0.00 67 1019.0
20260503215528 12 247 3.2 4.8 0.00 0.00 0.00 68 1018.0
20260503215026 12 263 1.6 4.8 0.00 0.00 0.00 69 1018.0
20260503214527 12 263 3.2 4.8 0.00 0.00 0.00 69 1018.0
20260503214026 12 246 1.6 4.8 0.00 0.00 0.00 69 1019.0
20260503213527 12 282 3.2 3.2 0.00 0.00 0.00 69 1019.0
20260503213028 12 270 1.6 3.2 0.00 0.00 0.00 69 1019.0
20260503212526 12 270 1.6 3.2 0.00 0.00 0.00 69 1018.0
20260503212025 12 252 1.6 3.2 0.00 0.00 0.00 69 1018.0
20260503211528 12 246 1.6 3.2 0.00 0.00 0.00 69 1018.0
20260503211027 12 260 1.6 3.2 0.00 0.00 0.00 68 1018.0
20260503205527 12 0 0.0 3.2 0.00 0.00 0.00 66 1018.0
20260503205026 13 357 3.2 3.2 0.00 0.00 0.00 66 1018.0
20260503204526 13 0 0.0 3.2 0.00 0.00 0.00 65 1018.0
20260503204026 13 0 0.0 3.2 0.00 0.00 0.00 65 1018.0
20260503203026 13 270 0.0 1.6 0.00 0.00 0.00 63 1018.0
20260503202525 13 270 1.6 3.2 0.00 0.00 0.00 63 1020.0
20260503202027 14 270 1.6 3.2 0.00 0.00 0.00 63 1020.0
20260503201529 14 270 3.2 3.2 0.00 0.00 0.00 64 1020.0
20260503201026 14 270 1.6 3.2 0.00 0.00 0.00 64 1019.0
20260503200525 13 263 3.2 4.8 0.00 0.00 0.00 64 1019.0
20260503200025 14 270 0.0 3.2 0.00 0.00 0.00 64 1019.0
20260503195527 14 231 3.2 3.2 0.00 0.00 0.00 64 1019.0
20260503194526 14 226 3.2 4.8 0.00 0.00 0.00 65 1019.0
20260503193527 14 244 3.2 8.0 0.00 0.00 0.00 66 1018.0
20260503193025 14 260 3.2 4.8 0.00 0.00 0.00 66 1018.0
20260503192525 14 246 3.2 8.0 0.00 0.00 0.00 66 1018.0
20260503192027 14 202 1.6 3.2 0.00 0.00 0.00 66 1018.0
20260503191527 14 247 3.2 4.8 0.00 0.00 0.00 66 1018.0
20260503191026 14 233 3.2 4.8 0.00 0.00 0.00 66 1018.0
20260503190528 14 237 1.6 3.2 0.00 0.00 0.00 66 1018.0
20260503190026 14 213 0.0 1.6 0.00 0.00 0.00 66 1018.0
20260503185527 14 174 0.0 1.6 0.00 0.00 0.00 66 1017.0
20260503185026 14 296 1.6 1.6 0.00 0.00 0.00 65 1017.0
20260503184525 14 178 1.6 3.2 0.00 0.00 0.00 65 1017.0
20260503184026 14 224 1.6 4.8 0.00 0.00 0.00 64 1017.0
20260503183026 15 270 0.0 1.6 0.00 0.00 0.00 63 1017.0
20260503182526 15 270 0.0 1.6 0.00 0.00 0.00 62 1017.0
20260503182026 15 194 1.6 3.2 0.00 0.00 0.00 61 1017.0
20260503181527 15 205 1.6 1.6 0.00 0.00 0.00 61 1017.0
20260503181026 15 163 1.6 3.2 0.00 0.00 0.00 60 1017.0
20260503180526 15 254 0.0 3.2 0.00 0.00 0.00 60 1017.0
20260503180028 15 122 1.6 3.2 0.00 0.00 0.00 59 1017.0
20260503175527 16 198 1.6 3.2 0.00 0.00 0.00 59 1017.0
20260503175026 16 72 1.6 4.8 0.00 0.00 0.00 58 1017.0
20260503174525 16 154 1.6 3.2 0.00 0.00 0.00 57 1017.0
20260503174027 16 211 0.0 3.2 0.00 0.00 0.00 56 1017.0
20260503173525 16 143 1.6 3.2 0.00 0.00 0.00 55 1017.0
20260503173025 16 136 1.6 3.2 0.00 0.00 0.00 55 1017.0
20260503172526 16 155 0.0 3.2 0.00 0.00 0.00 54 1017.0
20260503172027 16 160 0.0 3.2 0.00 0.00 0.00 54 1017.0
20260503171525 16 129 0.0 3.2 0.00 0.00 0.00 54 1017.0
20260503171028 16 132 0.0 1.6 0.00 0.00 0.00 53 1017.0
20260503170525 17 127 0.0 3.2 0.00 0.00 0.00 52 1017.0
20260503150527 18 153 4.8 8.0 0.00 0.00 0.00 47 1017.0
20260503131028 20 110 6.4 14.5 0.00 0.00 0.00 38 1019.0
20260503130524 20 92 4.8 11.3 0.00 0.00 0.00 38 1019.0
20260503110524 21 106 4.8 9.7 0.00 0.00 0.00 39 1019.0
20260503081525 16 99 8.0 9.7 0.00 0.00 0.00 63 1021.0
20260503081026 16 128 4.8 8.0 0.00 0.00 0.00 64 1021.0
20260503080525 16 84 4.8 9.7 0.00 0.00 0.00 65 1021.0
20260503072525 15 88 6.4 9.7 0.00 0.00 0.00 68 1021.0
20260503072025 15 158 3.2 8.0 0.00 0.00 0.00 68 1021.0
20260503071525 15 181 4.8 11.3 0.00 0.00 0.00 68 1021.0
20260503071029 15 88 4.8 11.3 0.00 0.00 0.00 69 1021.0
20260503055024 12 135 1.6 3.2 0.00 0.00 0.00 72 1021.0
20260503054025 12 96 1.6 3.2 0.00 0.00 0.00 72 1021.0
20260503053526 12 112 1.6 3.2 0.00 0.00 0.00 72 1021.0
20260503053024 12 156 1.6 3.2 0.00 0.00 0.00 72 1021.0
20260503052524 12 202 0.0 3.2 0.00 0.00 0.00 73 1020.0
20260503052025 12 202 0.0 0.0 0.00 0.00 0.00 73 1020.0
20260503050524 11 202 1.6 3.2 0.00 0.00 0.00 75 1020.0
20260503050024 11 202 1.6 3.2 0.00 0.00 0.00 75 1020.0
20260503045525 10 202 0.0 1.6 0.00 0.00 0.00 75 1020.0
20260503045025 10 202 0.0 0.0 0.00 0.00 0.00 75 1020.0
20260503044524 10 202 0.0 3.2 0.00 0.00 0.00 75 1020.0
20260503044025 9 202 1.6 3.2 0.00 0.00 0.00 75 1020.0
20260503043527 9 202 1.6 3.2 0.00 0.00 0.00 74 1020.0
20260503043025 9 270 0.0 1.6 0.00 0.00 0.00 74 1020.0
20260503042024 10 270 3.2 3.2 0.00 0.00 0.00 74 1020.0
20260503041525 9 270 1.6 3.2 0.00 0.00 0.00 74 1020.0
20260503041025 10 270 0.0 0.0 0.00 0.00 0.00 75 1020.0
20260503040525 10 0 3.2 3.2 0.00 0.00 0.00 75 1020.0
20260503034525 9 267 3.2 4.8 0.00 0.00 0.00 75 1020.0
20260503034025 9 270 0.0 3.2 0.00 0.00 0.00 75 1020.0
20260503033024 9 0 3.2 4.8 0.00 0.00 0.00 75 1020.0
20260503032525 9 0 1.6 3.2 0.00 0.00 0.00 76 1020.0
20260503031525 9 270 3.2 3.2 0.00 0.00 0.00 76 1020.0
20260503031026 8 270 3.2 3.2 0.00 0.00 0.00 76 1020.0
20260503030524 9 270 0.0 1.6 0.00 0.00 0.00 76 1020.0
20260503030024 9 270 3.2 3.2 0.00 0.00 0.00 76 1020.0
20260503025525 8 270 1.6 3.2 0.00 0.00 0.00 75 1020.0
20260503025025 9 270 1.6 3.2 0.00 0.00 0.00 75 1020.0
20260503024524 8 288 3.2 4.8 0.00 0.00 0.00 74 1020.0
20260503024026 8 270 0.0 1.6 0.00 0.00 0.00 73 1020.0
20260503023527 9 270 0.0 1.6 0.00 0.00 0.00 73 1020.0
20260503023025 9 270 1.6 1.6 0.00 0.00 0.00 72 1020.0
20260503022524 9 0 1.6 3.2 0.00 0.00 0.00 72 1020.0
20260503021526 10 0 3.2 3.2 0.00 0.00 0.00 70 1020.0
20260503021024 10 0 3.2 4.8 0.00 0.00 0.00 69 1020.0
20260503020524 10 270 3.2 4.8 0.00 0.00 0.00 69 1020.0
20260503015526 10 270 1.6 3.2 0.00 0.00 0.00 68 1020.0
20260503015025 10 280 1.6 4.8 0.00 0.00 0.00 68 1020.0
20260503014524 10 270 3.2 4.8 0.00 0.00 0.00 68 1020.0
20260503014025 10 326 3.2 4.8 0.00 0.00 0.00 68 1020.0
20260503013526 10 270 3.2 3.2 0.00 0.00 0.00 69 1020.0
20260503013024 10 270 3.2 3.2 0.00 0.00 0.00 69 1020.0
20260503012525 10 342 3.2 4.8 0.00 0.00 0.00 70 1020.0
20260503012025 9 270 3.2 3.2 0.00 0.00 0.00 70 1020.0
20260503011526 9 255 1.6 3.2 0.00 0.00 0.00 69 1020.0
20260503011025 9 225 0.0 0.0 0.00 0.00 0.00 68 1020.0
20260503010024 10 270 1.6 3.2 0.00 0.00 0.00 68 1020.0
20260503005024 10 0 1.6 4.8 0.00 0.00 0.00 67 1020.0
20260503004524 10 270 4.8 4.8 0.00 0.00 0.00 66 1020.0
20260503004023 10 321 3.2 4.8 0.00 0.00 0.00 67 1020.0
20260503003525 10 248 1.6 3.2 0.00 0.00 0.00 66 1020.0
20260503003026 10 270 1.6 3.2 0.00 0.00 0.00 66 1020.0
20260503002524 10 0 0.0 3.2 0.00 0.00 0.00 66 1020.0
20260503002024 10 298 3.2 4.8 0.00 0.00 0.00 66 1020.0